Flag for Netherlands Weather past 2 weeks in Nijmegen, Netherlands

48 °F

Partly cloudy.

Feels Like: 42 °F
Forecast: 44 / 54 °F
Wind: 18 mph from Southwest

Location: Volkel

Current Time: Nov 29, 2015 at 8:30:42 AM

Latest Report: Nov 29, 2015 at 7:25 AM

Visibility: N/A

Pressure: 29.74 "Hg

Humidity: 87%

Dew point: 45 °F

Location of NijmegenLocation

Historic Weather in Nijmegen — Graph


Nijmegen temperature yesterday

Maximum temperature yesterday: 46 °F (at 12:25 PM)
Minimum temperature yesterday: 39 °F (at 12:25 AM)
Average temperature yesterday: 43 °F

Past Weeks' High & Low Weather Summary

High61 °F (Nov 15, 10:55 AM)100% (Nov 14, 11:55 PM)30.27 "Hg (Nov 14, 11:55 PM)
Low32 °F (Nov 23, 4:25 AM)58% (Nov 18, 7:55 AM)29.36 "Hg (Nov 21, 7:25 AM)
Average45 °F85%29.84 "Hg
* Reported Nov 14 5:55 AM — Nov 29 5:55 AM, Nijmegen, Weather by CustomWeather, © 2015

Note: Actual official high and low records may vary slightly from our data, if they occured in-between our weather recording intervals... More about our weather records


Nijmegen weather history for previous 24 hours

Time TempWeatherWind HumidityBarometerVisibility
5:55 AM
Sun, Nov 29
48 °FLight rain. Partly cloudy.18 mph87%29.74 "HgN/A
5:25 AM46 °FPartly cloudy.21 mph93%29.74 "HgN/A
4:55 AM46 °FPassing clouds.18 mph93%29.71 "HgN/A
4:25 AM46 °FPartly cloudy.18 mph93%29.74 "HgN/A
4:04 AM46 °FPartly cloudy.21 mph87%29.74 "HgN/A
4:03 AM46 °FPartly cloudy.21 mph87%29.74 "HgN/A
3:25 AM46 °FLight rain. Mostly cloudy.21 mph87%29.74 "HgN/A
3:03 AM46 °FMostly cloudy.24 mph87%29.74 "HgN/A
2:55 AM46 °FPartly cloudy.21 mph87%29.74 "HgN/A
2:25 AM45 °FLight rain. Overcast.20 mph93%29.71 "Hg4 mi
2:01 AM45 °FLight rain. Partly cloudy.20 mph93%29.71 "Hg4 mi
1:25 AM45 °FLight rain. Passing clouds.24 mph93%29.74 "HgN/A
12:55 AM45 °FDrizzle. Overcast.25 mph87%29.71 "HgN/A
11:55 PM
Sat, Nov 28
45 °FMostly cloudy.25 mph87%29.74 "HgN/A
11:02 PM45 °FLight rain. Passing clouds.22 mph81%29.74 "Hg6 mi
10:25 PM45 °FPassing clouds.23 mph81%29.77 "HgN/A
9:25 PM45 °FOvercast.23 mph81%29.80 "HgN/A
8:55 PM43 °FOvercast.21 mph87%29.83 "HgN/A
8:25 PM43 °FPassing clouds.18 mph87%29.83 "HgN/A
7:59 PM43 °FLight rain. Mostly cloudy.18 mph87%29.86 "HgN/A
7:25 PM43 °FLight rain. Overcast.17 mph87%29.86 "HgN/A
6:55 PM43 °FLight rain. Mostly cloudy.21 mph81%29.86 "HgN/A
6:25 PM43 °FLight rain. Partly cloudy.17 mph76%29.89 "HgN/A
5:55 PM43 °FPartly cloudy.14 mph71%29.89 "HgN/A
5:25 PM43 °FPartly cloudy.13 mph76%29.89 "HgN/A
4:55 PM43 °FPartly cloudy.15 mph76%29.92 "HgN/A
4:25 PM43 °FOvercast.15 mph76%29.92 "HgN/A
3:55 PM43 °FOvercast.13 mph76%29.92 "HgN/A
3:25 PM43 °FScattered clouds.14 mph76%29.92 "HgN/A
2:55 PM45 °FPartly sunny.18 mph71%29.92 "HgN/A
2:25 PM46 °FPassing clouds.13 mph66%29.92 "HgN/A
1:55 PM46 °FScattered clouds.13 mph66%29.92 "HgN/A
1:25 PM46 °FBroken clouds.15 mph66%29.92 "HgN/A
12:55 PM46 °FBroken clouds.13 mph66%29.92 "HgN/A
12:25 PM46 °FScattered clouds.13 mph66%29.92 "HgN/A
11:55 AM45 °FQuite cool.14 mph71%29.92 "HgN/A
11:25 AM45 °FQuite cool.13 mph71%29.89 "HgN/A
10:55 AM45 °FQuite cool.12 mph71%29.89 "HgN/A
10:25 AM43 °FQuite cool.12 mph76%29.89 "HgN/A
9:55 AM43 °FPassing clouds.10 mph76%29.89 "HgN/A
9:25 AM41 °FQuite cool.9 mph87%29.86 "HgN/A
8:55 AM41 °FQuite cool.9 mph87%29.86 "HgN/A
8:25 AM41 °FPassing clouds.9 mph87%29.83 "HgN/A
Weather by CustomWeather, © 2015

See weather overviewHow to use our weather pages